Location: Austin
(30.3000°N, 97.7500°W)
Time: 05:45:54
(UTC-06:00)

YAOGAN 1 - Pass Details

Date: 18 November 2024
Orbit: 609 x 611 km, 97.8° (Epoch: 06 December)

Event Time Altitude Azimuth Distance (km) Brightness Sun altitude
Rises 19:25:50 0° 172° (S) 2,857 6.0 -24.3°
Reaches altitude 10° 19:28:01 10° 174° (S) 1,956 5.1 -24.8°
Maximum altitude 19:32:15 71° 258° (WSW) 647 2.7 -25.7°
Drops below altitude 10° 19:36:31 10° 343° (NNW) 1,966 5.2 -26.6°
Sets 19:38:42 0° 346° (NNW) 2,874 6.1 -27.0°
